Вернуться в каталог

EKRAN 8

АктивенСвязьGEO
NORAD 13056·PAYLOAD·🇷🇺 Russia

Запущен Feb 5, 1982 с Baikonur Cosmodrome

Loading…

TLE

СвежийSource: Space-Track

Эпоха: Sep 14, 2026, 12:35 UTC

1 13056U 82009A   26257.52488876 -.00000008  00000-0  00000-0 0  9993
2 13056   6.8618 295.7180 0028669 339.6835  88.9118  0.99949538119514

Отслеживайте EKRAN 8 в реальном времени с AllMySat

Download on the App Store